User: anonymous   Login
Location: Unspecified
(0.0000°N, 0.0000°E)
Time: 13:03:22
(UTC+00:00)
Language:

Jawsat - Orbit

View from above orbital plane
View from above orbital plane
View from above satellite
View from above satellite

Ground track
Ground track

The orbit data is extracted from the following two-line orbital elements,

1 26061U 00004A   21015.81567379  .00000070  00000-0  39728-4 0  9994
2 26061 100.2018 327.7215 0034239 104.3840 256.1147 14.41443264101637
Epoch (UTC): 15 January 2021 19:34:34
Eccentricity: 0.0034239
inclination: 100.2018°
perigee height: 729 km
apogee height: 778 km
right ascension of ascending node: 327.7215°
argument of perigee: 104.3840°
revolutions per day: 14.41443264
mean anomaly at epoch: 256.1147°
orbit number at epoch: 10163

The dashed part of the orbit path shows where the satellite is in the earth's shadow,  

DLR